International Virtual Aviation Organisation

Eastern Europe and Northern Asia MCD

 

Карточка аэропорта ULAA

Внимание!
Информация на этой странице в стадии наполнения.
Если вы не увидели какой-то информации, или заметили неточность - пожалуйста сообщите нам!
Спасибо!
Команда RU-STAFF
Название аэропортаТалаги
Название аэропорта (англ.)Talagi
Превышение62 ft. (18.9 m.)
Координаты64°36.018', 40°43.002'
Высота перехода3000FT
Эшелон переходаQFE>=760mm:FL040; QFE<760=>733:FL050; QFE<733:FL060
Коды ответчика3120-3127
Зона ОрВДАрхангельск РПИ (ULAA)
Данные METARULAA 200930Z 22003MPS 140V300 CAVOK 12/M11 Q1029 R26/CLRD70 NOSIG RMK QFE770/1027
Проноз погоды (TAF)ULAA 200800Z 2009/2109 20003G08MPS CAVOK TEMPO 2009/2018 23004G12MPS
NOTAMshow/hide NOTAM
AWOS   TABLE

Информация о ВПП


Диспетчерские позиции

Позывной Наименование органа УВД Частота
ULAA_APPАрхангельск-Подход122.0
ULAA_TWRАрхангельск-Вышка121.8



Спутниковое изображение